Location: Boissi�res
(45.2500°N, 2.3667°E)
Time: 20:36:43
(UTC+00:00)

Daily predictions for brighter satellites

Satellite Brightness Start Highest point End
(mag) Time Altitude Azimuth Time Altitude Azimuth Time Altitude Azimuth
H-2A R/B 2.3 18:02:49 10° SSE 18:08:07 56° ENE 18:13:27 10° N
CZ-2C R/B 3.6 18:04:04 10° NE 18:08:39 27° E 18:13:07 10° SSE
USA 305 4.4 18:05:56 10° WNW 18:09:44 30° NNW 18:13:31 10° NE
IRS-1C Rocket 4.1 18:06:41 10° SSE 18:11:55 73° ENE 18:17:12 10° N
Gbstr 26 Del rocket 3.9 18:08:19 10° W 18:12:27 47° NNW 18:17:28 10° ENE
Meteor 1-20 Rocket 4.1 18:08:51 10° S 18:14:16 71° E 18:19:45 10° NNE
Cosmos 1302 Rocket 4.1 18:09:23 10° SSW 18:14:35 82° WNW 18:19:50 10° NNE
SL-4 R/B 3.0 18:12:07 10° WNW 18:15:17 28° N 18:18:20 10° ENE
USA 307 4.4 18:17:19 10° WNW 18:21:05 29° NNW 18:24:50 10° NE
ATLAS CENTAUR R/B 2.0 18:20:04 10° S 18:23:11 28° ESE 18:26:22 10° ENE
FALCON 9 DEB 4.0 18:20:12 10° NW 18:23:25 36° NNE 18:26:13 12° E
USA 306 4.5 18:20:49 10° WNW 18:24:31 28° N 18:28:14 10° NE
Cosmos 1354 Rocket 4.5 18:21:24 10° N 18:26:21 40° ENE 18:31:14 10° SE
Cosmos 44 Rocket 3.4 18:22:19 10° NNW 18:27:36 78° NE 18:32:47 10° SE
Okean-O 2.6 18:23:28 10° SSE 18:27:53 71° ENE 18:32:19 10° N
ERS-2 2.3 18:25:06 10° NNE 18:28:39 46° E 18:32:10 10° S
CSL-04 Rocket 3.9 18:24:00 10° SE 18:29:19 49° ENE 18:34:36 10° N
Cosmos 1844 Rocket 3.1 18:24:41 10° NNW 18:29:57 41° NE 18:35:12 10° SE
Cosmos 2084 Rocket 3.6 18:25:40 10° NNW 18:29:57 60° NE 18:34:24 10° SE
CSL-04 Debris 4.3 18:25:23 10° SE 18:30:39 53° ENE 18:35:58 10° N
SAR-Lupe-1 4.3 18:27:17 10° NNE 18:30:47 46° E 18:34:14 10° S
USA 308 4.5 18:28:03 10° WNW 18:31:45 27° N 18:35:26 10° NE
Cosmos 1666 4.0 18:30:44 10° SE 18:33:22 19° E 18:36:01 10° NE
Cosmos 1271 Rocket 3.9 18:30:51 10° NNW 18:34:27 46° W 18:38:03 10° S
HJ-1C 3.4 18:32:34 10° SSE 18:35:49 56° ENE 18:39:04 10° N
Cosmos 1503 Rocket 4.1 18:31:32 10° NNW 18:36:39 55° ENE 18:41:42 10° SE
Cosmos 2341 Rocket 4.4 18:31:29 10° SSE 18:37:15 39° E 18:42:58 10° NNE
H-2A R/B 4.5 18:34:02 10° NNW 18:37:20 24° WNW 18:40:38 10° WSW
PSLV R/B 3.8 18:35:41 10° NNE 18:39:47 82° ESE 18:43:51 10° SSW
Cosmos 1470 Rocket 3.5 18:36:46 10° S 18:41:12 68° E 18:45:38 10° NNE
Cosmos 1844 4.1 18:36:16 10° NNW 18:41:47 43° NE 18:46:58 11° SE
Cosmos 2360 Rocket 2.3 18:38:10 10° S 18:43:36 53° ESE 18:49:06 10° NE
CZ-4B R/B 3.4 18:40:59 10° N 18:43:41 29° WNW 18:46:24 10° SW
Cosmos 1602 4.1 18:41:00 10° SSW 18:44:53 68° W 18:48:48 10° N
Ariane Rocket 4.1 18:42:04 15° ESE 18:44:55 24° ENE 18:48:55 10° N
Cosmos 2278 Rocket 3.9 18:43:32 10° N 18:46:39 15° NE 18:48:36 13° ENE
Meteor 1-19 Rocket 4.4 18:43:39 10° NNW 18:49:38 85° W 18:55:24 10° S
Cosmos 1500 3.0 18:48:14 10° S 18:51:55 66° E 18:55:38 10° NNE
Cosmos 2333 Rocket 3.0 18:49:09 10° SSE 18:53:54 28° ESE 18:58:41 10° NE
Meteor 2-4 Rocket 3.8 18:48:23 10° N 18:54:12 64° ENE 19:00:05 10° SSE
Cosmos 1703 Rocket 3.8 18:50:10 10° N 18:54:25 45° ENE 18:58:35 10° SSE
SL-08 RB Rocket 3.6 18:51:59 10° SSE 18:56:27 74° ENE 19:01:01 10° N
Cosmos 1689 Rocket 2.5 18:54:18 10° N 18:57:08 61° WNW 18:59:59 10° SSW
Meteor 2-12 Rocket 4.4 18:51:16 10° S 18:57:20 84° E 19:03:28 10° N
ERBS 4.4 18:56:54 10° WNW 18:59:32 21° NNW 19:02:10 10° NNE
Cosmos 1933 Rocket 3.4 18:57:46 10° S 19:02:06 75° E 19:06:30 10° NNE
BREEZE-M DEB (TANK) 4.1 19:02:10 10° SSW 19:03:36 21° SSE 19:03:36 21° SSE
Aureole 2 Rocket 2.4 19:02:38 10° NNW 19:05:07 50° WSW 19:06:52 16° S
Resurs 01 Rocket 3.4 19:12:40 16° NE 19:12:40 16° NE 19:14:27 10° NNE
Cosmos 2242 Rocket 3.5 19:07:59 10° N 19:12:31 80° E 19:16:58 10° SSE
Cosmos 2322 Rocket 2.9 19:08:09 10° SW 19:13:37 55° WNW 19:19:10 10° NNE
Lacrosse 4 Rocket 2.6 19:11:51 10° S 19:14:29 26° SE 19:14:29 26° SE
Abrixas rocket 2.6 19:13:54 10° WNW 19:16:07 35° N 19:16:07 35° N
Helios 1A Rocket 3.8 19:14:57 10° S 19:18:54 50° W 19:22:52 10° NNW
SME Rocket 4.2 19:11:13 10° NNE 19:18:57 51° E 19:24:03 10° S
YAOGAN 1 4.5 19:15:55 10° SSW 19:19:46 31° W 19:23:39 10° NNW
Cosmos 192 4.5 19:16:24 10° S 19:21:05 48° ESE 19:25:49 10° NNE
SJ-6B 2.9 19:22:30 39° SE 19:23:44 58° ENE 19:27:43 10° N
COSMOS 2428 3.2 19:18:46 10° S 19:23:52 36° ESE 19:24:51 33° E
GP-B 3.4 19:23:24 10° S 19:27:48 66° W 19:32:14 10° N
ASTEX 1 3.5 19:23:16 10° NNE 19:28:01 49° E 19:30:11 29° SSE
MOS 1 4.3 19:25:33 26° SE 19:28:36 56° ENE 19:34:10 10° N
Cosmos 2219 Rocket 2.3 19:25:26 10° S 19:30:46 48° ESE 19:36:08 10° NE
Meteor 1-11 Rocket 3.7 19:25:34 10° S 19:31:09 56° E 19:36:38 10° NNE
MetOp-A 4.1 19:27:20 10° SSE 19:32:42 88° ENE 19:38:06 10° NNW
OBJECT-B 2.1 19:36:26 30° N 19:36:26 30° N 19:38:15 10° N
Resurs 1-3 4.0 19:38:47 44° NE 19:38:47 44° NE 19:42:27 10° N
SL-16 R/B 4.0 19:33:35 10° WSW 19:38:34 31° NW 19:43:34 10° N
SJ 16-02 2.8 19:37:04 10° N 19:39:34 24° NNE 19:39:34 24° NNE
SeaSat 1 3.2 19:36:34 10° NNE 19:41:21 52° NW 19:46:07 10° SW
Okean 1-7 3.5 19:37:19 10° NNW 19:41:38 60° W 19:45:45 11° S
Cosmos 1066 Rocket 4.2 19:38:15 10° N 19:43:56 63° ENE 19:45:41 43° SE
Meteor 1-13 Rocket 4.2 19:38:22 10° N 19:44:21 87° ENE 19:48:31 20° S
USA 234 3.1 19:39:53 22° NE 19:44:23 82° SE 19:50:57 10° SW
CZ-2C R/B 3.7 19:43:55 10° N 19:49:07 45° WNW 19:54:13 10° SW
IRS-1A Rocket 4.1 19:46:43 31° SSE 19:49:33 84° ENE 19:55:09 10° NNW
USA 305 4.4 19:47:01 10° NW 19:50:39 26° N 19:50:56 26° NNE
Cosmos 2322 3.6 19:45:00 10° SSW 19:50:43 87° ESE 19:56:29 10° NNE
BREEZE-M DEB (TANK) 2.9 19:48:13 10° WNW 19:50:57 51° NNE 19:51:09 51° NNE
SL-4 R/B 2.9 19:51:52 10° WNW 19:54:12 37° NW 19:54:12 37° NW
Cosmos 1869 Rocket 3.7 19:52:06 10° SSW 19:56:25 69° W 20:00:48 10° N
SL-8 Rocket 4.3 19:52:38 10° SSW 19:58:51 68° W 20:05:03 10° N
Gbstr 26 Del rocket 4.2 19:55:37 10° WNW 20:00:11 42° N 20:00:59 40° NNE
ATLAS CENTAUR R/B 3.0 19:58:52 10° WSW 20:02:01 27° NW 20:03:10 23° NNW
USA 307 4.5 19:58:22 10° NW 20:01:49 27° N 20:01:49 27° N
USA 306 4.5 20:01:45 10° NW 20:05:03 27° N 20:05:03 27° N
Cosmos 1844 Rocket 4.2 20:08:49 10° NW 20:13:42 32° WSW 20:17:54 13° SSW
Cosmos 2366 rocket 4.3 20:07:38 10° SSW 20:13:54 65° W 20:20:15 10° N
SL-08 R/B 4.4 20:11:58 35° S 20:14:53 81° E 20:21:23 10° N
SPOT 3 Rocket 3.9 20:18:37 55° N 20:18:37 55° N 20:22:46 10° N
Okean 3 4.5 20:15:44 10° NNW 20:19:31 45° W 20:19:31 45° W
Ariane Rocket 3.7 20:22:15 40° SW 20:23:34 50° W 20:28:31 10° NNW
Cosmos 2360 Rocket 4.1 20:23:05 10° WSW 20:27:54 28° NW 20:32:46 10° N
Cosmos 2278 Rocket 2.7 20:26:11 10° NNW 20:30:28 50° N 20:30:28 50° N
Cosmos 1727 Rocket 4.3 20:30:18 10° NNW 20:36:23 61° W 20:37:45 49° SW
Cosmos 2333 Rocket 3.0 20:32:24 10° SW 20:37:53 48° WNW 20:43:27 10° NNE
Resurs 01 Rocket 3.7 20:50:14 23° NNW 20:50:14 23° NNW 20:52:00 10° NNW
Cosmos 1943 Rocket 4.3 20:46:34 10° N 20:48:24 17° NNE 20:48:24 17° NNE
Lacrosse 4 Rocket 4.2 20:50:15 10° WSW 20:50:57 14° WSW 20:50:57 14° WSW
COSMOS 2428 4.0 21:02:47 10° WSW 21:14:01 - NNE 21:07:14 37° WNW
Cosmos 2219 Rocket 3.8 21:10:03 10° WSW 21:14:55 30° NW 21:19:51 10° N
SJ 16-02 4.2 21:15:39 10° NW 21:16:35 15° NW 21:16:35 15° NW
USA 234 4.1 21:27:15 44° NNW 21:27:15 44° NNW 21:33:12 10° W
